Time,TemperatureF,DewpointF,PressureIn,WindDirection,WindDirectionDegrees,WindSpeedMPH,WindSpeedGustMPH,Humidity,HourlyPrecipIn,Conditions,Clouds,dailyrainin,SoftwareType,DateUTC
2013-03-08 00:00:00,28.7,25.3,29.36,SSW,212,0.0,0.0,86,0.00,,,-99.99,HOBO +U30 +Weather +,2013-03-08 05:00:00,
2013-03-08 00:05:00,28.7,25.3,29.36,WSW,239,0.0,0.0,86,0.00,,,-99.99,HOBO +U30 +Weather +,2013-03-08 05:05:00,
2013-03-08 00:15:00,28.6,25.2,29.36,West,268,0.0,0.0,87,0.00,,,-99.99,HOBO +U30 +Weather +,2013-03-08 05:15:00,
2013-03-08 00:20:00,28.6,25.3,29.36,SW,226,0.0,0.0,87,0.00,,,-99.99,HOBO +U30 +Weather +,2013-03-08 05:20:00,
2013-03-08 00:25:00,28.6,25.4,29.36,SSW,211,0.0,0.0,87,0.00,,,-99.99,HOBO +U30 +Weather +,2013-03-08 05:25:00,
2013-03-08 00:30:00,28.6,25.3,29.36,SSW,213,0.0,0.0,87,0.00,,,-99.99,HOBO +U30 +Weather +,2013-03-08 05:30:00,
2013-03-08 00:35:00,28.5,25.4,29.36,SW,220,0.0,0.0,87,0.00,,,-99.99,HOBO +U30 +Weather +,2013-03-08 05:35:00,
2013-03-08 00:40:00,28.4,25.3,29.36,SW,226,0.0,0.0,88,0.00,,,-99.99,HOBO +U30 +Weather +,2013-03-08 05:40:00,
2013-03-08 00:45:00,28.4,25.4,29.36,WSW,240,0.0,0.0,88,0.00,,,-99.99,HOBO +U30 +Weather +,2013-03-08 05:45:00,
2013-03-08 00:50:00,28.4,25.4,29.36,SSW,204,0.0,0.0,88,0.00,,,-99.99,HOBO +U30 +Weather +,2013-03-08 05:50:00,
2013-03-08 00:55:00,28.4,25.4,29.36,SW,227,0.0,0.0,88,0.00,,,-99.99,HOBO +U30 +Weather +,2013-03-08 05:55:00,
2013-03-08 01:00:00,28.4,25.4,29.36,SW,215,0.0,0.0,88,0.00,,,-99.99,HOBO +U30 +Weather +,2013-03-08 06:00:00,
2013-03-08 01:05:00,28.4,25.4,29.36,SSW,198,0.0,0.0,88,0.00,,,-99.99,HOBO +U30 +Weather +,2013-03-08 06:05:00,
2013-03-08 01:10:00,28.4,25.3,29.35,SSW,201,0.0,0.0,88,0.00,,,-99.99,HOBO +U30 +Weather +,2013-03-08 06:10:00,
2013-03-08 01:15:00,28.4,25.3,29.35,SW,216,0.0,0.0,88,0.00,,,-99.99,HOBO +U30 +Weather +,2013-03-08 06:15:00,
2013-03-08 01:20:00,28.4,25.3,29.36,SW,229,0.0,0.4,88,0.00,,,-99.99,HOBO +U30 +Weather +,2013-03-08 06:20:00,
2013-03-08 01:25:00,28.4,25.3,29.35,SSW,208,0.0,0.0,87,0.00,,,-99.99,HOBO +U30 +Weather +,2013-03-08 06:25:00,
2013-03-08 01:30:00,28.4,25.3,29.35,SW,233,0.0,0.0,88,0.00,,,-99.99,HOBO +U30 +Weather +,2013-03-08 06:30:00,
2013-03-08 01:35:00,28.4,25.2,29.36,SW,215,0.0,0.0,87,0.00,,,-99.99,HOBO +U30 +Weather +,2013-03-08 06:35:00,
2013-03-08 01:40:00,28.4,25.2,29.36,SSW,199,0.0,0.0,87,0.00,,,-99.99,HOBO +U30 +Weather +,2013-03-08 06:40:00,
2013-03-08 01:50:00,28.4,25.3,29.36,SW,225,0.0,0.0,87,0.00,,,-99.99,HOBO +U30 +Weather +,2013-03-08 06:50:00,
2013-03-08 01:55:00,28.4,25.1,29.36,West,260,0.0,0.0,87,0.00,,,-99.99,HOBO +U30 +Weather +,2013-03-08 06:55:00,
2013-03-08 02:00:00,28.4,25.1,29.35,WSW,257,0.0,0.0,87,0.00,,,-99.99,HOBO +U30 +Weather +,2013-03-08 07:00:00,
2013-03-08 02:05:00,28.5,25.1,29.35,SSW,206,0.0,0.0,87,0.00,,,-99.99,HOBO +U30 +Weather +,2013-03-08 07:05:00,
2013-03-08 02:10:00,28.4,24.9,29.35,West,265,0.0,0.0,86,0.00,,,-99.99,HOBO +U30 +Weather +,2013-03-08 07:10:00,
2013-03-08 02:15:00,28.4,24.9,29.35,WSW,253,0.0,0.0,86,0.00,,,-99.99,HOBO +U30 +Weather +,2013-03-08 07:15:00,
2013-03-08 02:20:00,28.5,25.0,29.35,SW,223,0.0,0.0,86,0.00,,,-99.99,HOBO +U30 +Weather +,2013-03-08 07:20:00,
2013-03-08 02:25:00,28.5,24.9,29.35,SW,232,0.0,0.0,86,0.00,,,-99.99,HOBO +U30 +Weather +,2013-03-08 07:25:00,
2013-03-08 02:30:00,28.5,24.8,29.34,SW,230,0.0,0.0,85,0.00,,,-99.99,HOBO +U30 +Weather +,2013-03-08 07:30:00,
2013-03-08 02:35:00,28.6,24.8,29.34,SW,229,0.0,0.0,85,0.00,,,-99.99,HOBO +U30 +Weather +,2013-03-08 07:35:00,
2013-03-08 02:40:00,28.6,24.7,29.34,SSW,202,0.0,0.9,85,0.00,,,-99.99,HOBO +U30 +Weather +,2013-03-08 07:40:00,
2013-03-08 02:45:00,28.6,24.6,29.34,SSW,202,0.0,0.0,84,0.00,,,-99.99,HOBO +U30 +Weather +,2013-03-08 07:45:00,
2013-03-08 02:50:00,28.7,24.7,29.34,SSW,213,0.0,0.0,84,0.00,,,-99.99,HOBO +U30 +Weather +,2013-03-08 07:50:00,
2013-03-08 02:55:00,28.7,24.6,29.34,SW,226,0.0,0.0,84,0.00,,,-99.99,HOBO +U30 +Weather +,2013-03-08 07:55:00,
2013-03-08 03:00:00,28.7,24.5,29.33,SSW,212,0.0,0.0,84,0.00,,,-99.99,HOBO +U30 +Weather +,2013-03-08 08:00:00,
2013-03-08 03:05:00,28.7,24.5,29.34,SSW,213,0.0,0.0,84,0.00,,,-99.99,HOBO +U30 +Weather +,2013-03-08 08:05:00,
2013-03-08 03:10:00,28.7,24.4,29.34,SW,236,0.0,0.0,83,0.00,,,-99.99,HOBO +U30 +Weather +,2013-03-08 08:10:00,
2013-03-08 03:15:00,28.7,24.4,29.34,SW,222,0.9,6.3,83,0.00,,,-99.99,HOBO +U30 +Weather +,2013-03-08 08:15:00,
2013-03-08 03:20:00,28.7,24.4,29.34,SSW,201,0.9,7.8,83,0.00,,,-99.99,HOBO +U30 +Weather +,2013-03-08 08:20:00,
2013-03-08 03:25:00,28.8,24.3,29.34,SW,234,0.0,1.6,83,0.00,,,-99.99,HOBO +U30 +Weather +,2013-03-08 08:25:00,
2013-03-08 03:30:00,28.8,24.3,29.34,SW,223,0.0,0.0,83,0.00,,,-99.99,HOBO +U30 +Weather +,2013-03-08 08:30:00,
2013-03-08 03:35:00,28.8,24.1,29.34,SSW,208,0.0,0.0,82,0.00,,,-99.99,HOBO +U30 +Weather +,2013-03-08 08:35:00,
2013-03-08 03:40:00,28.8,24.1,29.34,WSW,246,0.0,0.0,82,0.00,,,-99.99,HOBO +U30 +Weather +,2013-03-08 08:40:00,
2013-03-08 03:45:00,28.9,24.1,29.34,SW,223,0.0,0.0,81,0.00,,,-99.99,HOBO +U30 +Weather +,2013-03-08 08:45:00,
2013-03-08 03:50:00,28.8,23.9,29.34,WSW,247,0.0,0.0,81,0.00,,,-99.99,HOBO +U30 +Weather +,2013-03-08 08:50:00,
2013-03-08 03:55:00,28.8,23.9,29.34,SW,225,0.0,0.0,81,0.00,,,-99.99,HOBO +U30 +Weather +,2013-03-08 08:55:00,
2013-03-08 04:00:00,28.9,23.8,29.34,SSW,201,0.0,0.0,81,0.00,,,-99.99,HOBO +U30 +Weather +,2013-03-08 09:00:00,
2013-03-08 04:05:00,28.9,23.8,29.34,SW,232,0.0,0.0,81,0.00,,,-99.99,HOBO +U30 +Weather +,2013-03-08 09:05:00,
2013-03-08 04:10:00,29.0,23.8,29.35,SSW,212,0.0,0.0,80,0.00,,,-99.99,HOBO +U30 +Weather +,2013-03-08 09:10:00,
2013-03-08 04:20:00,28.9,23.6,29.35,SW,232,0.0,0.0,80,0.00,,,-99.99,HOBO +U30 +Weather +,2013-03-08 09:20:00,
2013-03-08 04:25:00,28.9,23.5,29.35,WSW,241,0.0,0.0,79,0.00,,,-99.99,HOBO +U30 +Weather +,2013-03-08 09:25:00,
2013-03-08 04:30:00,29.0,23.5,29.34,SW,215,4.3,10.7,79,0.00,,,-99.99,HOBO +U30 +Weather +,2013-03-08 09:30:00,
2013-03-08 04:40:00,29.0,23.4,29.35,WSW,239,0.0,0.4,79,0.00,,,-99.99,HOBO +U30 +Weather +,2013-03-08 09:40:00,
2013-03-08 04:45:00,29.0,23.4,29.34,SW,220,0.0,0.0,79,0.00,,,-99.99,HOBO +U30 +Weather +,2013-03-08 09:45:00,
2013-03-08 04:55:00,28.6,23.4,29.34,WSW,239,0.0,0.0,80,0.00,,,-99.99,HOBO +U30 +Weather +,2013-03-08 09:55:00,
2013-03-08 05:00:00,28.4,23.5,29.34,SSW,213,0.0,0.0,81,0.00,,,-99.99,HOBO +U30 +Weather +,2013-03-08 10:00:00,
2013-03-08 05:10:00,28.0,23.7,29.34,WSW,240,0.0,2.0,83,0.00,,,-99.99,HOBO +U30 +Weather +,2013-03-08 10:10:00,
2013-03-08 05:20:00,27.9,23.9,29.34,WSW,253,2.0,7.4,84,0.00,,,-99.99,HOBO +U30 +Weather +,2013-03-08 10:20:00,
2013-03-08 05:40:00,27.9,24.1,29.35,SSW,213,0.0,0.0,85,0.00,,,-99.99,HOBO +U30 +Weather +,2013-03-08 10:40:00,
2013-03-08 05:45:00,27.9,24.2,29.34,SW,225,0.0,0.0,85,0.00,,,-99.99,HOBO +U30 +Weather +,2013-03-08 10:45:00,
2013-03-08 05:50:00,27.9,24.2,29.34,SW,230,0.0,0.0,86,0.00,,,-99.99,HOBO +U30 +Weather +,2013-03-08 10:50:00,
2013-03-08 05:55:00,27.9,24.2,29.34,SW,226,0.0,0.4,85,0.00,,,-99.99,HOBO +U30 +Weather +,2013-03-08 10:55:00,
2013-03-08 06:00:00,27.8,24.1,29.34,SW,222,0.0,0.0,85,0.00,,,-99.99,HOBO +U30 +Weather +,2013-03-08 11:00:00,
2013-03-08 06:05:00,27.8,24.1,29.34,SW,216,2.5,12.5,86,0.00,,,-99.99,HOBO +U30 +Weather +,2013-03-08 11:05:00,
2013-03-08 06:10:00,27.7,24.1,29.34,SW,225,0.0,4.3,86,0.00,,,-99.99,HOBO +U30 +Weather +,2013-03-08 11:10:00,
2013-03-08 06:15:00,27.8,24.1,29.35,SSW,194,0.0,0.0,86,0.00,,,-99.99,HOBO +U30 +Weather +,2013-03-08 11:15:00,
2013-03-08 06:25:00,27.8,24.1,29.36,WSW,239,0.0,1.6,86,0.00,,,-99.99,HOBO +U30 +Weather +,2013-03-08 11:25:00,
2013-03-08 06:50:00,27.7,24.3,29.37,SW,232,0.0,0.0,87,0.00,,,-99.99,HOBO +U30 +Weather +,2013-03-08 11:50:00,
2013-03-08 06:55:00,27.6,24.2,29.37,WSW,250,0.0,0.4,87,0.00,,,-99.99,HOBO +U30 +Weather +,2013-03-08 11:55:00,
2013-03-08 07:00:00,27.6,24.3,29.37,SSW,201,0.4,13.0,87,0.00,,,-99.99,HOBO +U30 +Weather +,2013-03-08 12:00:00,
2013-03-08 07:05:00,27.6,24.3,29.37,WSW,246,4.5,11.6,87,0.00,,,-99.99,HOBO +U30 +Weather +,2013-03-08 12:05:00,
2013-03-08 07:40:00,28.0,24.5,29.37,SW,218,0.9,7.4,86,0.00,,,-99.99,HOBO +U30 +Weather +,2013-03-08 12:40:00,
2013-03-08 07:45:00,28.0,24.5,29.37,SW,218,6.3,11.6,86,0.00,,,-99.99,HOBO +U30 +Weather +,2013-03-08 12:45:00,
2013-03-08 07:55:00,28.2,24.7,29.38,SW,227,3.8,11.6,86,0.00,,,-99.99,HOBO +U30 +Weather +,2013-03-08 12:55:00,
2013-03-08 08:00:00,28.1,24.7,29.38,SW,216,4.9,11.2,86,0.00,,,-99.99,HOBO +U30 +Weather +,2013-03-08 13:00:00,
2013-03-08 08:10:00,28.2,24.7,29.39,SW,222,4.9,10.7,86,0.00,,,-99.99,HOBO +U30 +Weather +,2013-03-08 13:10:00,
2013-03-08 08:15:00,28.2,24.7,29.39,SW,232,2.5,11.6,86,0.00,,,-99.99,HOBO +U30 +Weather +,2013-03-08 13:15:00,
2013-03-08 08:25:00,28.3,24.8,29.37,SW,225,4.3,11.2,86,0.00,,,-99.99,HOBO +U30 +Weather +,2013-03-08 13:25:00,
2013-03-08 08:30:00,28.4,24.8,29.36,SSW,209,5.8,13.0,86,0.00,,,-99.99,HOBO +U30 +Weather +,2013-03-08 13:30:00,
2013-03-08 08:35:00,28.4,24.8,29.36,SW,220,5.8,13.2,86,0.00,,,-99.99,HOBO +U30 +Weather +,2013-03-08 13:35:00,
2013-03-08 08:40:00,28.5,24.9,29.36,SW,222,6.3,14.1,86,0.00,,,-99.99,HOBO +U30 +Weather +,2013-03-08 13:40:00,
2013-03-08 08:45:00,28.7,25.0,29.35,SW,227,6.7,14.1,85,0.00,,,-99.99,HOBO +U30 +Weather +,2013-03-08 13:45:00,
2013-03-08 08:50:00,28.7,24.8,29.35,SW,220,7.8,21.9,85,0.00,,,-99.99,HOBO +U30 +Weather +,2013-03-08 13:50:00,
2013-03-08 08:55:00,28.8,24.9,29.34,SW,225,9.2,16.6,85,0.00,,,-99.99,HOBO +U30 +Weather +,2013-03-08 13:55:00,
2013-03-08 09:00:00,28.9,24.9,29.33,SW,226,9.2,18.6,84,0.00,,,-99.99,HOBO +U30 +Weather +,2013-03-08 14:00:00,
2013-03-08 09:05:00,29.2,24.9,29.34,SW,222,7.8,18.3,84,0.00,,,-99.99,HOBO +U30 +Weather +,2013-03-08 14:05:00,
2013-03-08 09:10:00,29.6,25.2,29.36,South,178,2.9,10.7,83,0.00,,,-99.99,HOBO +U30 +Weather +,2013-03-08 14:10:00,
2013-03-08 09:20:00,29.6,25.1,29.37,NE,35,3.8,11.2,83,0.00,,,-99.99,HOBO +U30 +Weather +,2013-03-08 14:20:00,
2013-03-08 09:25:00,29.7,25.1,29.36,SW,218,4.5,10.3,83,0.00,,,-99.99,HOBO +U30 +Weather +,2013-03-08 14:25:00,
2013-03-08 09:30:00,29.7,25.1,29.36,SW,233,1.3,8.3,82,0.00,,,-99.99,HOBO +U30 +Weather +,2013-03-08 14:30:00,
2013-03-08 09:50:00,30.2,25.3,29.38,SSE,163,0.0,2.9,81,0.00,,,-99.99,HOBO +U30 +Weather +,2013-03-08 14:50:00,
2013-03-08 09:55:00,30.2,25.2,29.37,SSW,211,0.0,0.0,81,0.00,,,-99.99,HOBO +U30 +Weather +,2013-03-08 14:55:00,
2013-03-08 10:00:00,30.5,25.3,29.38,SW,226,0.0,0.0,81,0.00,,,-99.99,HOBO +U30 +Weather +,2013-03-08 15:00:00,
2013-03-08 10:05:00,30.5,25.2,29.38,SW,226,0.0,0.0,80,0.00,,,-99.99,HOBO +U30 +Weather +,2013-03-08 15:05:00,
2013-03-08 10:10:00,30.6,25.1,29.38,WSW,244,0.0,0.0,79,0.00,,,-99.99,HOBO +U30 +Weather +,2013-03-08 15:10:00,
2013-03-08 10:15:00,30.8,25.0,29.38,SSW,192,0.0,0.0,79,0.00,,,-99.99,HOBO +U30 +Weather +,2013-03-08 15:15:00,
2013-03-08 10:20:00,31.0,25.1,29.39,South,191,0.0,0.0,78,0.00,,,-99.99,HOBO +U30 +Weather +,2013-03-08 15:20:00,
2013-03-08 10:25:00,31.3,25.1,29.39,SW,234,0.0,0.4,77,0.00,,,-99.99,HOBO +U30 +Weather +,2013-03-08 15:25:00,
2013-03-08 10:30:00,31.5,25.1,29.39,SSE,167,0.0,0.4,76,0.00,,,-99.99,HOBO +U30 +Weather +,2013-03-08 15:30:00,
2013-03-08 10:35:00,31.5,25.0,29.39,SSE,167,0.0,0.0,76,0.00,,,-99.99,HOBO +U30 +Weather +,2013-03-08 15:35:00,
2013-03-08 10:40:00,31.5,24.8,29.39,SSW,212,0.0,0.9,76,0.00,,,-99.99,HOBO +U30 +Weather +,2013-03-08 15:40:00,
2013-03-08 10:45:00,31.8,24.8,29.39,South,181,0.0,0.0,75,0.00,,,-99.99,HOBO +U30 +Weather +,2013-03-08 15:45:00,
2013-03-08 10:50:00,31.8,24.7,29.40,West,263,0.0,0.0,74,0.00,,,-99.99,HOBO +U30 +Weather +,2013-03-08 15:50:00,
2013-03-08 10:55:00,31.8,24.6,29.39,SSW,209,0.0,0.0,74,0.00,,,-99.99,HOBO +U30 +Weather +,2013-03-08 15:55:00,
2013-03-08 11:00:00,32.1,24.7,29.40,South,183,0.0,0.0,73,0.00,,,-99.99,HOBO +U30 +Weather +,2013-03-08 16:00:00,
2013-03-08 11:05:00,32.1,24.6,29.40,WSW,239,0.0,0.0,73,0.00,,,-99.99,HOBO +U30 +Weather +,2013-03-08 16:05:00,
2013-03-08 11:10:00,32.3,24.6,29.40,SSW,213,0.0,0.4,73,0.00,,,-99.99,HOBO +U30 +Weather +,2013-03-08 16:10:00,
2013-03-08 11:15:00,32.5,24.6,29.41,SSW,197,0.0,0.0,72,0.00,,,-99.99,HOBO +U30 +Weather +,2013-03-08 16:15:00,
2013-03-08 11:20:00,32.6,24.7,29.40,SW,234,0.0,1.6,72,0.00,,,-99.99,HOBO +U30 +Weather +,2013-03-08 16:20:00,
2013-03-08 11:25:00,33.1,24.9,29.41,SSE,166,0.0,0.0,71,0.00,,,-99.99,HOBO +U30 +Weather +,2013-03-08 16:25:00,
2013-03-08 11:30:00,33.2,24.9,29.41,SW,232,0.0,0.0,71,0.00,,,-99.99,HOBO +U30 +Weather +,2013-03-08 16:30:00,
2013-03-08 11:35:00,33.6,25.1,29.41,WSW,258,0.0,0.0,70,0.00,,,-99.99,HOBO +U30 +Weather +,2013-03-08 16:35:00,
2013-03-08 11:40:00,33.4,24.8,29.41,SW,220,0.0,0.0,70,0.00,,,-99.99,HOBO +U30 +Weather +,2013-03-08 16:40:00,
2013-03-08 11:45:00,33.5,24.8,29.41,SW,219,0.0,0.0,70,0.00,,,-99.99,HOBO +U30 +Weather +,2013-03-08 16:45:00,
2013-03-08 11:50:00,33.9,25.1,29.41,SW,218,0.0,0.0,69,0.00,,,-99.99,HOBO +U30 +Weather +,2013-03-08 16:50:00,
2013-03-08 11:55:00,34.2,25.2,29.41,SW,226,0.0,0.0,69,0.00,,,-99.99,HOBO +U30 +Weather +,2013-03-08 16:55:00,
2013-03-08 12:00:00,34.0,24.9,29.40,SW,218,0.0,0.0,69,0.00,,,-99.99,HOBO +U30 +Weather +,2013-03-08 17:00:00,
2013-03-08 12:05:00,34.2,24.9,29.40,SW,229,0.0,0.0,68,0.00,,,-99.99,HOBO +U30 +Weather +,2013-03-08 17:05:00,
2013-03-08 12:10:00,34.6,25.1,29.40,SW,225,0.0,0.0,68,0.00,,,-99.99,HOBO +U30 +Weather +,2013-03-08 17:10:00,
2013-03-08 12:15:00,34.7,25.1,29.40,SW,229,0.0,0.0,67,0.00,,,-99.99,HOBO +U30 +Weather +,2013-03-08 17:15:00,
2013-03-08 12:20:00,35.0,25.2,29.40,WSW,240,0.0,0.0,67,0.00,,,-99.99,HOBO +U30 +Weather +,2013-03-08 17:20:00,
2013-03-08 12:25:00,35.4,25.5,29.40,WSW,241,0.0,0.0,66,0.00,,,-99.99,HOBO +U30 +Weather +,2013-03-08 17:25:00,
2013-03-08 12:30:00,35.4,25.4,29.40,SW,233,0.0,0.0,66,0.00,,,-99.99,HOBO +U30 +Weather +,2013-03-08 17:30:00,
2013-03-08 12:35:00,35.6,25.4,29.39,SW,222,0.0,0.0,65,0.00,,,-99.99,HOBO +U30 +Weather +,2013-03-08 17:35:00,
2013-03-08 12:40:00,36.2,25.8,29.39,SW,233,0.0,0.0,65,0.00,,,-99.99,HOBO +U30 +Weather +,2013-03-08 17:40:00,
2013-03-08 12:45:00,36.3,25.6,29.40,SW,226,0.0,0.0,64,0.30,,,-99.99,HOBO +U30 +Weather +,2013-03-08 17:45:00,
2013-03-08 12:50:00,36.4,25.5,29.40,SW,230,0.0,0.0,64,0.50,,,-99.99,HOBO +U30 +Weather +,2013-03-08 17:50:00,
2013-03-08 12:55:00,36.5,25.4,29.39,WSW,248,0.0,0.0,63,0.50,,,-99.99,HOBO +U30 +Weather +,2013-03-08 17:55:00,
2013-03-08 13:00:00,36.9,25.4,29.39,SW,218,0.0,0.0,62,0.30,,,-99.99,HOBO +U30 +Weather +,2013-03-08 18:00:00,
2013-03-08 13:05:00,37.6,25.8,29.39,SSW,201,0.0,0.0,62,0.50,,,-99.99,HOBO +U30 +Weather +,2013-03-08 18:05:00,
2013-03-08 13:10:00,37.7,25.4,29.39,South,184,0.0,0.0,60,0.50,,,-99.99,HOBO +U30 +Weather +,2013-03-08 18:10:00,
2013-03-08 13:15:00,38.3,25.6,29.39,WSW,246,0.0,0.0,59,0.00,,,-99.99,HOBO +U30 +Weather +,2013-03-08 18:15:00,
2013-03-08 13:20:00,38.5,25.6,29.40,WSW,250,0.0,0.0,59,0.50,,,-99.99,HOBO +U30 +Weather +,2013-03-08 18:20:00,
2013-03-08 13:25:00,39.3,26.2,29.39,WSW,247,0.0,0.0,59,0.00,,,-99.99,HOBO +U30 +Weather +,2013-03-08 18:25:00,
2013-03-08 13:30:00,38.9,25.4,29.39,WSW,244,0.0,0.0,58,0.00,,,-99.99,HOBO +U30 +Weather +,2013-03-08 18:30:00,
2013-03-08 13:35:00,38.5,25.0,29.39,WSW,247,0.0,0.0,58,0.00,,,-99.99,HOBO +U30 +Weather +,2013-03-08 18:35:00,
2013-03-08 13:40:00,38.4,24.8,29.39,SW,232,0.0,0.0,57,0.00,,,-99.99,HOBO +U30 +Weather +,2013-03-08 18:40:00,
2013-03-08 13:45:00,38.4,24.7,29.39,SW,230,0.0,0.0,57,0.00,,,-99.99,HOBO +U30 +Weather +,2013-03-08 18:45:00,
2013-03-08 13:50:00,38.9,24.9,29.39,SW,229,0.0,0.0,56,0.00,,,-99.99,HOBO +U30 +Weather +,2013-03-08 18:50:00,
2013-03-08 13:55:00,39.4,25.1,29.40,West,264,0.0,0.0,56,0.00,,,-99.99,HOBO +U30 +Weather +,2013-03-08 18:55:00,
2013-03-08 14:00:00,39.6,25.2,29.40,SSW,209,0.0,0.0,55,0.00,,,-99.99,HOBO +U30 +Weather +,2013-03-08 19:00:00,
2013-03-08 14:05:00,39.8,25.0,29.40,West,261,0.0,0.0,55,0.00,,,-99.99,HOBO +U30 +Weather +,2013-03-08 19:05:00,
2013-03-08 14:10:00,39.5,24.2,29.40,SW,218,0.0,0.0,53,0.00,,,-99.99,HOBO +U30 +Weather +,2013-03-08 19:10:00,
2013-03-08 14:15:00,40.1,24.6,29.40,SSW,202,0.0,0.0,53,0.00,,,-99.99,HOBO +U30 +Weather +,2013-03-08 19:15:00,
2013-03-08 14:20:00,40.2,24.6,29.40,SW,222,0.0,0.0,53,0.00,,,-99.99,HOBO +U30 +Weather +,2013-03-08 19:20:00,
2013-03-08 14:25:00,40.3,24.6,29.40,SW,222,0.0,0.0,53,0.00,,,-99.99,HOBO +U30 +Weather +,2013-03-08 19:25:00,
2013-03-08 14:30:00,40.9,24.9,29.40,SW,232,0.0,0.0,52,0.00,,,-99.99,HOBO +U30 +Weather +,2013-03-08 19:30:00,
2013-03-08 14:35:00,41.4,25.1,29.40,West,264,0.0,0.0,52,0.00,,,-99.99,HOBO +U30 +Weather +,2013-03-08 19:35:00,
2013-03-08 14:40:00,41.0,24.8,29.40,SW,234,0.0,0.0,52,0.00,,,-99.99,HOBO +U30 +Weather +,2013-03-08 19:40:00,
2013-03-08 14:45:00,41.6,25.2,29.41,WSW,253,0.0,0.0,51,0.00,,,-99.99,HOBO +U30 +Weather +,2013-03-08 19:45:00,
2013-03-08 14:50:00,42.0,24.9,29.41,West,274,0.0,0.0,50,0.00,,,-99.99,HOBO +U30 +Weather +,2013-03-08 19:50:00,
2013-03-08 14:55:00,42.0,24.7,29.40,WSW,247,0.0,0.0,50,0.00,,,-99.99,HOBO +U30 +Weather +,2013-03-08 19:55:00,
2013-03-08 15:00:00,42.1,24.8,29.41,West,264,0.0,0.0,50,0.00,,,-99.99,HOBO +U30 +Weather +,2013-03-08 20:00:00,
2013-03-08 15:05:00,42.8,25.3,29.41,WNW,286,0.0,0.0,49,0.00,,,-99.99,HOBO +U30 +Weather +,2013-03-08 20:05:00,
2013-03-08 15:10:00,42.4,24.7,29.41,WSW,256,0.0,0.0,49,0.00,,,-99.99,HOBO +U30 +Weather +,2013-03-08 20:10:00,
2013-03-08 15:15:00,42.9,24.9,29.41,WSW,250,0.0,0.0,48,0.00,,,-99.99,HOBO +U30 +Weather +,2013-03-08 20:15:00,
2013-03-08 15:20:00,42.3,24.3,29.41,SSW,199,0.0,0.0,48,0.00,,,-99.99,HOBO +U30 +Weather +,2013-03-08 20:20:00,
2013-03-08 15:25:00,42.3,24.1,29.41,SSW,212,0.0,1.3,48,0.00,,,-99.99,HOBO +U30 +Weather +,2013-03-08 20:25:00,
2013-03-08 15:30:00,42.1,24.0,29.41,SW,229,0.0,0.0,48,0.00,,,-99.99,HOBO +U30 +Weather +,2013-03-08 20:30:00,
2013-03-08 15:35:00,42.2,24.2,29.41,WSW,237,0.0,0.0,48,0.00,,,-99.99,HOBO +U30 +Weather +,2013-03-08 20:35:00,
2013-03-08 15:40:00,42.1,23.8,29.41,SSW,204,0.0,1.3,48,0.00,,,-99.99,HOBO +U30 +Weather +,2013-03-08 20:40:00,
2013-03-08 15:45:00,42.0,23.7,29.41,SSW,206,0.0,0.0,48,0.00,,,-99.99,HOBO +U30 +Weather +,2013-03-08 20:45:00,
2013-03-08 15:50:00,42.2,23.8,29.41,WSW,240,0.0,0.0,47,0.00,,,-99.99,HOBO +U30 +Weather +,2013-03-08 20:50:00,
2013-03-08 15:55:00,42.2,23.7,29.41,SW,218,0.0,0.0,47,0.00,,,-99.99,HOBO +U30 +Weather +,2013-03-08 20:55:00,
2013-03-08 16:00:00,42.0,23.6,29.41,SW,220,0.0,0.0,47,0.00,,,-99.99,HOBO +U30 +Weather +,2013-03-08 21:00:00,
2013-03-08 16:05:00,41.8,23.5,29.41,SW,223,0.0,0.9,47,0.00,,,-99.99,HOBO +U30 +Weather +,2013-03-08 21:05:00,
2013-03-08 16:10:00,41.4,23.3,29.42,SSW,205,0.0,0.0,48,0.00,,,-99.99,HOBO +U30 +Weather +,2013-03-08 21:10:00,
2013-03-08 16:30:00,41.3,23.2,29.42,SW,219,0.0,0.0,48,0.00,,,-99.99,HOBO +U30 +Weather +,2013-03-08 21:30:00,
2013-03-08 16:35:00,41.0,23.1,29.42,SW,220,0.0,0.0,48,0.00,,,-99.99,HOBO +U30 +Weather +,2013-03-08 21:35:00,
2013-03-08 16:40:00,40.8,23.2,29.42,WSW,244,0.0,0.0,49,0.00,,,-99.99,HOBO +U30 +Weather +,2013-03-08 21:40:00,
2013-03-08 16:45:00,40.9,23.2,29.43,SW,234,0.0,0.0,48,0.00,,,-99.99,HOBO +U30 +Weather +,2013-03-08 21:45:00,
2013-03-08 16:50:00,40.8,22.9,29.43,SW,234,0.0,0.0,48,0.00,,,-99.99,HOBO +U30 +Weather +,2013-03-08 21:50:00,
2013-03-08 16:55:00,39.9,23.1,29.43,SW,215,0.0,0.0,50,0.00,,,-99.99,HOBO +U30 +Weather +,2013-03-08 21:55:00,
2013-03-08 17:00:00,40.1,23.0,29.44,WSW,248,0.0,0.0,50,0.00,,,-99.99,HOBO +U30 +Weather +,2013-03-08 22:00:00,
2013-03-08 17:05:00,39.9,23.1,29.43,SSW,211,0.0,0.0,50,0.00,,,-99.99,HOBO +U30 +Weather +,2013-03-08 22:05:00,
2013-03-08 17:20:00,39.1,22.9,29.44,WSW,251,0.0,0.0,51,0.00,,,-99.99,HOBO +U30 +Weather +,2013-03-08 22:20:00,
2013-03-08 17:25:00,38.5,22.9,29.44,WSW,243,0.0,0.0,53,0.00,,,-99.99,HOBO +U30 +Weather +,2013-03-08 22:25:00,
2013-03-08 17:30:00,37.4,22.3,29.44,West,274,0.0,0.0,54,0.00,,,-99.99,HOBO +U30 +Weather +,2013-03-08 22:30:00,
2013-03-08 17:35:00,36.1,22.7,29.44,SW,232,0.0,0.0,57,0.00,,,-99.99,HOBO +U30 +Weather +,2013-03-08 22:35:00,
2013-03-08 17:40:00,35.9,23.1,29.45,South,188,0.0,0.0,59,0.00,,,-99.99,HOBO +U30 +Weather +,2013-03-08 22:40:00,
2013-03-08 17:45:00,37.2,23.3,29.45,South,187,0.0,0.0,56,0.00,,,-99.99,HOBO +U30 +Weather +,2013-03-08 22:45:00,
2013-03-08 17:50:00,38.2,23.8,29.45,SSW,211,0.0,0.0,55,0.00,,,-99.99,HOBO +U30 +Weather +,2013-03-08 22:50:00,
2013-03-08 17:55:00,37.7,23.6,29.45,West,260,0.0,0.0,56,0.00,,,-99.99,HOBO +U30 +Weather +,2013-03-08 22:55:00,
2013-03-08 18:05:00,38.7,23.8,29.46,SW,232,0.0,0.0,54,0.00,,,-99.99,HOBO +U30 +Weather +,2013-03-08 23:05:00,
2013-03-08 18:10:00,38.5,23.8,29.46,SW,222,0.0,0.0,55,0.00,,,-99.99,HOBO +U30 +Weather +,2013-03-08 23:10:00,
2013-03-08 18:15:00,38.4,23.7,29.46,WSW,239,0.0,0.0,55,0.00,,,-99.99,HOBO +U30 +Weather +,2013-03-08 23:15:00,
2013-03-08 18:20:00,38.4,23.7,29.47,WSW,250,0.0,0.0,55,0.00,,,-99.99,HOBO +U30 +Weather +,2013-03-08 23:20:00,
2013-03-08 18:25:00,37.6,23.4,29.47,SSW,205,0.0,0.0,56,0.00,,,-99.99,HOBO +U30 +Weather +,2013-03-08 23:25:00,
2013-03-08 18:40:00,37.7,23.8,29.47,SSW,211,0.0,0.0,56,0.00,,,-99.99,HOBO +U30 +Weather +,2013-03-08 23:40:00,
2013-03-08 18:50:00,37.4,23.5,29.48,SW,232,0.0,0.0,57,0.00,,,-99.99,HOBO +U30 +Weather +,2013-03-08 23:50:00,
2013-03-08 18:55:00,37.4,23.8,29.48,SW,220,0.0,0.4,57,0.00,,,-99.99,HOBO +U30 +Weather +,2013-03-08 23:55:00,
2013-03-08 19:00:00,36.4,23.3,29.48,SW,225,0.0,0.0,58,0.00,,,-99.99,HOBO +U30 +Weather +,2013-03-09 00:00:00,
2013-03-08 19:05:00,36.8,23.7,29.48,SW,225,0.0,0.0,58,0.00,,,-99.99,HOBO +U30 +Weather +,2013-03-09 00:05:00,
2013-03-08 19:10:00,36.3,23.5,29.48,WSW,246,0.0,0.0,59,0.00,,,-99.99,HOBO +U30 +Weather +,2013-03-09 00:10:00,
2013-03-08 19:15:00,34.6,22.9,29.49,West,270,0.0,0.0,61,0.00,,,-99.99,HOBO +U30 +Weather +,2013-03-09 00:15:00,
2013-03-08 19:20:00,34.6,23.2,29.49,SW,226,0.0,0.0,62,0.00,,,-99.99,HOBO +U30 +Weather +,2013-03-09 00:20:00,
2013-03-08 19:25:00,34.0,22.9,29.49,WSW,258,0.0,0.0,63,0.00,,,-99.99,HOBO +U30 +Weather +,2013-03-09 00:25:00,
2013-03-08 19:30:00,33.7,22.9,29.49,West,263,0.0,0.0,64,0.00,,,-99.99,HOBO +U30 +Weather +,2013-03-09 00:30:00,
2013-03-08 19:40:00,33.3,23.5,29.49,WSW,256,0.0,0.0,66,0.00,,,-99.99,HOBO +U30 +Weather +,2013-03-09 00:40:00,
2013-03-08 19:50:00,33.0,23.8,29.50,West,263,0.0,0.0,68,0.00,,,-99.99,HOBO +U30 +Weather +,2013-03-09 00:50:00,
2013-03-08 19:55:00,34.8,24.3,29.50,SW,223,0.0,0.0,65,0.00,,,-99.99,HOBO +U30 +Weather +,2013-03-09 00:55:00,
2013-03-08 20:00:00,33.8,23.3,29.50,SW,222,0.0,0.0,64,0.00,,,-99.99,HOBO +U30 +Weather +,2013-03-09 01:00:00,
2013-03-08 20:05:00,32.4,23.0,29.51,WSW,240,0.0,0.0,68,0.00,,,-99.99,HOBO +U30 +Weather +,2013-03-09 01:05:00,
2013-03-08 20:10:00,32.0,23.0,29.51,WSW,240,0.0,0.0,69,0.00,,,-99.99,HOBO +U30 +Weather +,2013-03-09 01:10:00,
2013-03-08 20:15:00,33.7,23.9,29.51,West,260,0.0,0.0,67,0.00,,,-99.99,HOBO +U30 +Weather +,2013-03-09 01:15:00,
2013-03-08 20:20:00,32.8,23.1,29.51,SSW,205,0.0,0.0,66,0.00,,,-99.99,HOBO +U30 +Weather +,2013-03-09 01:20:00,
2013-03-08 20:25:00,33.4,23.4,29.51,WNW,293,0.0,0.0,66,0.00,,,-99.99,HOBO +U30 +Weather +,2013-03-09 01:25:00,
2013-03-08 20:30:00,33.9,23.6,29.51,SW,227,0.0,0.0,65,0.00,,,-99.99,HOBO +U30 +Weather +,2013-03-09 01:30:00,
2013-03-08 20:35:00,33.6,23.2,29.51,SSW,206,0.0,0.0,65,0.00,,,-99.99,HOBO +U30 +Weather +,2013-03-09 01:35:00,
2013-03-08 20:40:00,31.8,22.3,29.52,SW,227,0.0,0.0,67,0.00,,,-99.99,HOBO +U30 +Weather +,2013-03-09 01:40:00,
2013-03-08 20:45:00,32.6,23.6,29.52,SW,232,0.0,0.0,69,0.00,,,-99.99,HOBO +U30 +Weather +,2013-03-09 01:45:00,
2013-03-08 20:50:00,32.3,22.9,29.52,WSW,237,0.0,0.0,67,0.00,,,-99.99,HOBO +U30 +Weather +,2013-03-09 01:50:00,
2013-03-08 20:55:00,33.0,23.8,29.52,WSW,244,0.0,0.0,68,0.00,,,-99.99,HOBO +U30 +Weather +,2013-03-09 01:55:00,
2013-03-08 21:00:00,32.5,22.9,29.52,WSW,240,0.0,0.0,67,0.00,,,-99.99,HOBO +U30 +Weather +,2013-03-09 02:00:00,
2013-03-08 21:05:00,32.2,23.0,29.52,WSW,243,0.0,0.0,68,0.00,,,-99.99,HOBO +U30 +Weather +,2013-03-09 02:05:00,
2013-03-08 21:10:00,31.6,22.9,29.52,WSW,250,0.0,0.0,69,0.00,,,-99.99,HOBO +U30 +Weather +,2013-03-09 02:10:00,
2013-03-08 21:15:00,32.5,23.7,29.52,WSW,250,0.0,0.0,69,0.00,,,-99.99,HOBO +U30 +Weather +,2013-03-09 02:15:00,
2013-03-08 21:25:00,32.5,22.8,29.52,SW,234,0.0,0.0,67,0.00,,,-99.99,HOBO +U30 +Weather +,2013-03-09 02:25:00,
2013-03-08 21:30:00,33.4,24.0,29.52,WSW,256,0.0,0.0,68,0.00,,,-99.99,HOBO +U30 +Weather +,2013-03-09 02:30:00,
2013-03-08 21:35:00,33.2,23.5,29.52,SW,230,0.0,0.0,67,0.00,,,-99.99,HOBO +U30 +Weather +,2013-03-09 02:35:00,
2013-03-08 21:45:00,33.3,23.9,29.52,WSW,248,0.0,0.0,68,0.00,,,-99.99,HOBO +U30 +Weather +,2013-03-09 02:45:00,
2013-03-08 21:50:00,32.4,22.9,29.52,West,272,0.0,0.0,67,0.00,,,-99.99,HOBO +U30 +Weather +,2013-03-09 02:50:00,
2013-03-08 21:55:00,30.9,22.3,29.52,West,261,0.0,0.0,70,0.00,,,-99.99,HOBO +U30 +Weather +,2013-03-09 02:55:00,
2013-03-08 22:00:00,30.7,22.5,29.52,WSW,256,0.0,0.0,71,0.00,,,-99.99,HOBO +U30 +Weather +,2013-03-09 03:00:00,
2013-03-08 22:05:00,30.8,23.0,29.52,West,281,0.0,0.0,72,0.00,,,-99.99,HOBO +U30 +Weather +,2013-03-09 03:05:00,
2013-03-08 22:10:00,29.9,22.4,29.52,WNW,284,0.0,0.0,73,0.00,,,-99.99,HOBO +U30 +Weather +,2013-03-09 03:10:00,
2013-03-08 22:15:00,29.2,22.2,29.52,WNW,284,0.0,0.0,74,0.00,,,-99.99,HOBO +U30 +Weather +,2013-03-09 03:15:00,
2013-03-08 22:20:00,29.2,22.6,29.52,WNW,284,0.0,0.0,75,0.00,,,-99.99,HOBO +U30 +Weather +,2013-03-09 03:20:00,
2013-03-08 22:25:00,29.9,22.7,29.52,WSW,247,0.0,0.0,74,0.00,,,-99.99,HOBO +U30 +Weather +,2013-03-09 03:25:00,
2013-03-08 22:30:00,28.2,21.5,29.52,SW,233,0.0,0.0,75,0.00,,,-99.99,HOBO +U30 +Weather +,2013-03-09 03:30:00,
2013-03-08 22:35:00,28.3,22.0,29.52,SW,233,0.0,0.0,77,0.00,,,-99.99,HOBO +U30 +Weather +,2013-03-09 03:35:00,
2013-03-08 22:40:00,28.3,22.1,29.52,SW,233,0.0,0.0,77,0.00,,,-99.99,HOBO +U30 +Weather +,2013-03-09 03:40:00,
2013-03-08 22:45:00,28.0,21.7,29.52,SW,233,0.0,0.0,76,0.00,,,-99.99,HOBO +U30 +Weather +,2013-03-09 03:45:00,
2013-03-08 22:55:00,29.0,22.4,29.52,WSW,240,0.0,0.0,76,0.00,,,-99.99,HOBO +U30 +Weather +,2013-03-09 03:55:00,
2013-03-08 23:00:00,30.3,22.9,29.52,SW,236,0.0,0.0,73,0.00,,,-99.99,HOBO +U30 +Weather +,2013-03-09 04:00:00,
2013-03-08 23:05:00,30.7,23.2,29.52,WSW,243,0.0,0.0,73,0.00,,,-99.99,HOBO +U30 +Weather +,2013-03-09 04:05:00,
2013-03-08 23:10:00,29.7,21.9,29.52,WSW,246,0.0,0.0,72,0.00,,,-99.99,HOBO +U30 +Weather +,2013-03-09 04:10:00,
2013-03-08 23:15:00,28.5,21.4,29.52,WSW,244,0.0,0.0,74,0.00,,,-99.99,HOBO +U30 +Weather +,2013-03-09 04:15:00,
2013-03-08 23:20:00,28.1,21.3,29.52,West,272,0.0,0.0,75,0.00,,,-99.99,HOBO +U30 +Weather +,2013-03-09 04:20:00,
2013-03-08 23:25:00,28.2,22.0,29.52,West,272,0.0,0.0,77,0.00,,,-99.99,HOBO +U30 +Weather +,2013-03-09 04:25:00,
2013-03-08 23:30:00,28.1,21.8,29.52,West,275,0.0,0.0,76,0.00,,,-99.99,HOBO +U30 +Weather +,2013-03-09 04:30:00,
2013-03-08 23:35:00,29.4,22.4,29.52,WNW,288,0.0,0.0,74,0.00,,,-99.99,HOBO +U30 +Weather +,2013-03-09 04:35:00,
2013-03-08 23:40:00,27.8,20.9,29.52,WSW,253,0.0,0.0,74,0.00,,,-99.99,HOBO +U30 +Weather +,2013-03-09 04:40:00,
2013-03-08 23:45:00,26.9,20.9,29.51,West,278,0.0,0.0,77,0.00,,,-99.99,HOBO +U30 +Weather +,2013-03-09 04:45:00,
2013-03-08 23:50:00,26.1,20.6,29.51,West,278,0.0,0.0,79,0.00,,,-99.99,HOBO +U30 +Weather +,2013-03-09 04:50:00,
2013-03-08 23:55:00,25.5,20.2,29.52,West,278,0.0,0.0,80,0.00,,,-99.99,HOBO +U30 +Weather +,2013-03-09 04:55:00,